This is the latest recevied weather packets stored in our database for station/object KK7KRZ. If no packets are shown the sender has not sent any weather packets the latest 10 day(s).
| Time | Temp. | Humidity | Pressure | Rain* | Wind** | Luminosity | Snow |
|---|---|---|---|---|---|---|---|
| 1777997672 | 12.78° C | 84% | 1016.1 hPa | 0 mm | - | 117 W/m² | - |
| 1777997370 | 13.33° C | 84% | 1016.1 hPa | 0 mm | - | 106 W/m² | - |
| 1777997068 | 13.33° C | 85% | 1016.1 hPa | 0 mm | - | 100 W/m² | - |
| 1777996764 | 12.78° C | 85% | 1016.3 hPa | 0 mm | - | 93 W/m² | - |
| 1777996461 | 12.78° C | 85% | 1016.2 hPa | 0 mm | - | 85 W/m² | - |
| 1777996158 | 13.33° C | 85% | 1016 hPa | 0 mm | - | 67 W/m² | - |
| 1777995854 | 13.33° C | 86% | 1016.1 hPa | 0 mm | - | 57 W/m² | - |
| 1777995550 | 12.78° C | 87% | 1015.9 hPa | 0 mm | - | 54 W/m² | - |
| 1777995247 | 12.78° C | 87% | 1016.2 hPa | 0 mm | - | 52 W/m² | - |
| 1777994939 | 12.78° C | 88% | 1015.9 hPa | 0 mm | - | 51 W/m² | - |
| 1777994636 | 12.22° C | 87% | 1015.9 hPa | 0 mm | - | 51 W/m² | - |
| 1777994335 | 12.22° C | 87% | 1015.9 hPa | 0 mm | - | 49 W/m² | - |
| 1777994032 | 12.22° C | 88% | 1015.9 hPa | 0 mm | - | 50 W/m² | - |
| 1777993729 | 12.78° C | 89% | 1016.1 hPa | 0 mm | - | 43 W/m² | - |
| 1777993427 | 12.22° C | 90% | 1015.9 hPa | 0 mm | - | 42 W/m² | - |
| 1777993126 | 12.22° C | 90% | 1015.8 hPa | 0 mm | - | 36 W/m² | - |
| 1777992825 | 12.22° C | 90% | 1015.9 hPa | 0 mm | - | 35 W/m² | - |
| 1777992522 | 12.22° C | 90% | 1015.7 hPa | 0 mm | - | 30 W/m² | - |
| 1777992221 | 12.22° C | 90% | 1015.7 hPa | 0 mm | - | 28 W/m² | - |
| 1777991917 | 11.67° C | 90% | 1015.7 hPa | 0 mm | - | 24 W/m² | - |
| 1777991615 | 12.22° C | 90% | 1016 hPa | 0 mm | - | 26 W/m² | - |
| 1777991312 | 12.22° C | 91% | 1015.7 hPa | 0 mm | - | 22 W/m² | - |
| 1777991009 | 11.67° C | 91% | 1015.6 hPa | 0 mm | - | 19 W/m² | - |
| 1777990706 | 11.67° C | 91% | 1015.7 hPa | 0 mm | - | 17 W/m² | - |
| 1777990403 | 11.67° C | 91% | 1015.5 hPa | 0 mm | - | 15 W/m² | - |
* Rain latest hour (hover to see other rain measurements)
** Current wind speed in m/s (hover to see current wind gust speed)